Weather History for Avoca, PA

Change the Weather History Date:

Friday, March 1, 2013

  Actual Average Record
Temperature  
Mean Temperature 33 °F 32 °F  
Max Temperature 37 °F 41 °F 68 °F (1972)
Min Temperature 28 °F 23 °F 2 °F (1980)
Degree Days  
Heating Degree Days 32 33  
Month to date heating degree days 32 33  
Since 1 July heating degree days 4256 4639  
Cooling Degree Days 0 0  
Month to date cooling degree days 0 0  
Year to date cooling degree days 0 0  
Moisture  
Dew Point 27 °F    
Average Humidity 80    
Maximum Humidity 96    
Minimum Humidity 64    
Precipitation  
Precipitation T in 0.07 in 1.56 in (1914)
Month to date precipitation T 0.07  
Year to date precipitation 3.33 4.47  
Sea Level Pressure  
Sea Level Pressure 29.73 in    
Wind  
Wind Speed 11 mph (NW)    
Max Wind Speed 21 mph    
Max Gust Speed 28 mph    
Visibility 9 miles    
Events Snow    
T = Trace of Precipitation, MM = Missing Value Source: NWS Daily Summary

Daily Weather History Graph

Daily Weather History Graph

Search for Another Location

Airport:

Trip Planner

Search our weather history database for the weather conditions in past years. The results will help you decide how hot, cold, wet, or windy it might be!

Date:

Astronomy

Mar. 01, 2013 Rise Set
Actual Time 6:37 AM EST 5:53 PM EST
Civil Twilight 6:09 AM EST 6:21 PM EST
Nautical Twilight 5:37 AM EST 6:53 PM EST
Astronomical Twilight 5:05 AM EST 7:25 PM EST
Moon 10:28 PM EST (3/1) 8:19 AM EST (3/1)
Length of Visible Light 12h 12m
Length of Day
11h 16m
Waning Gibbous, 83% of the Moon is Illuminated
Mar 1
Waning Gibbous
Mar 4
Last Quarter
Mar 11
New
Mar 19
First Quarter
Mar 27
Full

Hourly Weather History & Observations

Time (EST) Temp. Windchill Dew Point Humidity Pressure Visibility Wind Dir Wind Speed Gust Speed Precip Events Conditions
12:39 AM 33.8 °F - 30.2 °F 87% 29.64 in 5.0 mi Calm Calm - 0.00 in   Overcast
12:54 AM 33.1 °F 28.7 °F 32.0 °F 96% 29.65 in 6.0 mi West 4.6 mph - 0.00 in   Overcast
1:49 AM 33.8 °F 26.4 °F 30.2 °F 87% 29.64 in 10.0 mi NW 9.2 mph - 0.00 in   Overcast
1:54 AM 34.0 °F 25.5 °F 30.0 °F 85% 29.65 in 10.0 mi NW 11.5 mph - 0.00 in   Overcast
2:03 AM 33.8 °F 26.4 °F 30.2 °F 87% 29.64 in 9.0 mi NW 9.2 mph - N/A   Overcast
2:14 AM 33.8 °F 27.0 °F 30.2 °F 87% 29.64 in 8.0 mi NW 8.1 mph - N/A   Overcast
2:44 AM 33.8 °F 26.4 °F 30.2 °F 87% 29.65 in 8.0 mi NW 9.2 mph - N/A   Overcast
2:54 AM 33.1 °F 25.5 °F 30.0 °F 89% 29.66 in 7.0 mi NW 9.2 mph - N/A   Overcast
3:54 AM 33.1 °F 25.5 °F 28.9 °F 85% 29.68 in 10.0 mi WNW 9.2 mph - 0.00 in   Mostly Cloudy
4:04 AM 33.8 °F 25.8 °F 28.4 °F 81% 29.66 in 10.0 mi NW 10.4 mph - N/A   Scattered Clouds
4:54 AM 33.1 °F 26.1 °F 28.9 °F 85% 29.69 in 10.0 mi WNW 8.1 mph - N/A   Overcast
5:23 AM 33.8 °F 25.8 °F 28.4 °F 81% 29.68 in 10.0 mi NW 10.4 mph - N/A   Overcast
5:54 AM 33.1 °F 25.5 °F 28.0 °F 82% 29.70 in 10.0 mi WNW 9.2 mph - N/A   Overcast
6:43 AM 33.8 °F 26.4 °F 28.4 °F 81% 29.69 in 10.0 mi NW 9.2 mph - N/A   Overcast
6:54 AM 33.1 °F 24.9 °F 28.0 °F 82% 29.71 in 10.0 mi WNW 10.4 mph - N/A   Overcast
7:06 AM 33.8 °F 26.4 °F 28.4 °F 81% 29.69 in 10.0 mi NW 9.2 mph - N/A   Overcast
7:30 AM 33.8 °F 26.4 °F 28.4 °F 81% 29.70 in 10.0 mi WNW 9.2 mph - N/A   Overcast
7:54 AM 33.1 °F 25.5 °F 28.9 °F 85% 29.73 in 10.0 mi WNW 9.2 mph - N/A   Overcast
8:54 AM 34.0 °F 25.5 °F 28.0 °F 79% 29.74 in 10.0 mi NW 11.5 mph - N/A   Overcast
9:54 AM 35.1 °F 26.9 °F 28.0 °F 76% 29.75 in 10.0 mi WNW 11.5 mph 19.6 mph 0.00 in   Overcast
10:54 AM 35.1 °F 26.4 °F 28.0 °F 76% 29.75 in 10.0 mi WNW 12.7 mph - N/A   Overcast
11:52 AM 35.6 °F 26.2 °F 26.6 °F 70% 29.73 in 10.0 mi WNW 15.0 mph - N/A   Overcast
11:54 AM 36.0 °F 27.1 °F 27.0 °F 70% 29.75 in 10.0 mi WNW 13.8 mph - N/A   Overcast
12:05 PM 35.6 °F 26.2 °F 26.6 °F 70% 29.73 in 10.0 mi NW 15.0 mph 21.9 mph N/A   Overcast
12:54 PM 37.0 °F 28.5 °F 26.1 °F 65% 29.75 in 10.0 mi WNW 13.8 mph - 0.00 in   Overcast
1:03 PM 37.4 °F 29.8 °F 26.6 °F 65% 29.73 in 10.0 mi NW 11.5 mph - N/A   Overcast
1:26 PM 35.6 °F 26.2 °F 26.6 °F 70% 29.73 in 10.0 mi NW 15.0 mph 24.2 mph N/A   Overcast
1:54 PM 37.0 °F 27.7 °F 26.1 °F 65% 29.75 in 10.0 mi NW 16.1 mph - N/A   Overcast
2:54 PM 36.0 °F 25.0 °F 26.1 °F 67% 29.75 in 10.0 mi NW 20.7 mph 25.3 mph 0.00 in   Overcast
3:03 PM 35.6 °F 25.5 °F 26.6 °F 70% 29.74 in 10.0 mi NW 17.3 mph - N/A   Overcast
3:10 PM 35.6 °F 25.9 °F 24.8 °F 65% 29.74 in 10.0 mi NW 16.1 mph - N/A   Overcast
3:24 PM 35.6 °F 26.2 °F 26.6 °F 70% 29.74 in 10.0 mi NW 15.0 mph 23.0 mph N/A   Overcast
3:54 PM 35.1 °F 25.9 °F 27.0 °F 72% 29.76 in 8.0 mi NW 13.8 mph 19.6 mph 0.00 in   Overcast
4:54 PM 34.0 °F 23.4 °F 26.1 °F 73% 29.78 in 9.0 mi NW 17.3 mph 23.0 mph 0.00 in   Overcast
5:04 PM 33.8 °F 25.8 °F 26.6 °F 75% 29.76 in 9.0 mi NW 10.4 mph - N/A   Overcast
5:17 PM 33.8 °F 24.3 °F 24.8 °F 70% 29.77 in 10.0 mi NW 13.8 mph 23.0 mph N/A   Overcast
5:24 PM 33.8 °F 25.3 °F 24.8 °F 70% 29.77 in 10.0 mi NNW 11.5 mph - N/A   Overcast
5:33 PM 33.8 °F 25.3 °F 24.8 °F 70% 29.77 in 10.0 mi NNW 11.5 mph - N/A   Overcast
5:54 PM 33.1 °F 23.9 °F 25.0 °F 72% 29.80 in 10.0 mi NNW 12.7 mph 20.7 mph N/A   Overcast
6:54 PM 32.0 °F 24.2 °F 24.1 °F 73% 29.83 in 10.0 mi NNW 9.2 mph - 0.00 in   Overcast
7:54 PM 30.9 °F 24.3 °F 25.0 °F 79% 29.83 in 7.0 mi NW 6.9 mph - 0.00 in Snow Light Snow
8:54 PM 30.9 °F 22.8 °F 24.1 °F 76% 29.84 in 7.0 mi North 9.2 mph - 0.00 in Snow Light Snow
9:54 PM 30.0 °F 22.4 °F 21.0 °F 69% 29.85 in 10.0 mi North 8.1 mph 16.1 mph 0.00 in   Overcast
10:54 PM 28.9 °F 21.9 °F 19.9 °F 69% 29.86 in 10.0 mi WNW 6.9 mph - N/A   Overcast
11:54 PM 28.0 °F 20.8 °F 19.9 °F 72% 29.85 in 10.0 mi WNW 6.9 mph - N/A   Overcast